#timestamp,LO_Frequency,Hit,StdDev 
1540350015.1,286047003.5,N
1540350016.0,286047003.5,N
1540350035.8,286047005.1,N
1540350055.6,286047004.7,N
1540350075.5,286047005.4,N
1540350095.3,286047007.2,Y
1540350115.2,286046999.9,P
1540350135.9,286047000.5,N
1540350155.7,286046998.5,N
1540350175.6,286047000.5,N
1540350195.4,286046999.9,N
1540350215.2,286047000.0,N
1540350235.1,286046998.5,N
1540350236.0,286046998.5,N
1540350255.8,286047001.1,N
1540350275.7,286047000.0,N
1540350295.5,286047001.0,N
1540350315.3,286047000.5,N
1540350335.2,286047001.8,N
1540350355.0,286047002.0,N
1540350355.9,286047002.0,N
1540350375.7,286047004.4,N
1540350395.6,286047004.1,N
1540350415.4,286047004.4,N
1540350435.3,286047003.8,N
1540350455.1,286047006.4,Y
1540350456.0,286047006.4,P
1540350475.8,286047003.4,N
1540350495.7,286047002.9,N
1540350515.5,286047003.0,N
1540350535.3,286047003.6,N
1540350555.2,286047004.8,Y
1540350575.0,286047004.0,P
1540350575.9,286047004.0,P
1540350595.8,286047004.0,P
1540350615.6,286047001.7,Y
1540350635.4,286046999.2,P
1540350655.3,286046999.1,N
1540350675.1,286046998.4,N
1540350695.9,286046998.6,N
1540350715.7,286046998.2,N
1540350735.5,286047002.5,N
1540350755.4,286047004.0,N
1540350775.2,286047005.4,N
1540350795.0,286047005.9,N
1540350795.9,286047005.9,N
1540350815.8,286047003.0,N
1540350835.6,286047003.2,N
1540350855.5,286047004.4,N
1540350875.3,286047003.4,N
1540350895.1,286047003.7,N
1540350915.9,286047004.0,N
1540350935.7,286047003.0,N
1540350955.5,286047008.8,Y
1540350975.4,286047002.9,P
1540350995.2,286047006.9,P
1540351015.0,286047007.6,P
1540351016.0,286047007.6,Y
1540351035.8,286047000.3,P
1540351055.6,286047000.4,N
1540351075.5,286047001.1,N
1540351095.3,286046998.1,N
1540351115.1,286047001.1,N
1540351135.9,286047000.9,N
1540351155.7,286046998.9,N
1540351175.5,286046998.2,N
1540351195.4,286047002.2,N
1540351215.2,286047002.0,N
1540351235.1,286047001.8,N
1540351236.0,286047001.8,N
1540351255.8,286047002.7,N
1540351275.6,286047001.6,N
1540351295.5,286047002.7,N
1540351315.3,286047002.8,N
1540351335.1,286047002.0,N
1540351355.9,286046999.8,N
1540351375.7,286046999.9,N
1540351395.6,286047002.2,N
1540351415.4,286047003.3,N
1540351435.2,286047004.1,N
1540351455.1,286047005.0,N
1540351456.0,286047005.0,N
1540351475.8,286047007.6,Y
1540351495.7,286047005.0,P
1540351515.5,286047008.8,P
1540351535.3,286047006.6,N
1540351555.2,286047006.9,N
1540351575.9,286047006.9,N
1540351595.7,286047006.6,N
1540351615.6,286047008.8,Y
1540351635.4,286047002.8,P
1540351655.2,286047001.3,N
1540351675.1,286047003.7,N
1540351676.0,286047003.7,N
1540351695.8,286047004.1,N
1540351715.7,286047001.3,N
1540351735.5,286047004.2,N
1540351755.3,286047001.5,N
1540351775.2,286047004.3,N
1540351795.0,286047004.3,N
1540351795.9,286047004.3,N
1540351815.8,286047002.2,N
1540351835.6,286047003.9,N
1540351855.4,286047003.8,N
1540351875.3,286047005.4,Y
1540351895.1,286047002.5,P
1540351915.8,286047001.8,P
1540351935.7,286047003.9,P
1540351955.5,286047005.4,Y
1540351975.4,286046999.9,P
1540351995.2,286047002.4,N
1540352015.0,286046999.9,N
1540352015.9,286046999.9,N
1540352035.8,286047005.8,Y
1540352055.6,286047003.1,P
1540352075.5,286047004.1,P
1540352095.3,286047003.9,N
1540352115.1,286047004.0,Y
1540352135.9,286047000.3,P
1540352155.7,286047005.4,P
1540352175.6,286047006.5,P
1540352195.4,286047009.0,Y
1540352215.2,286047003.3,P
1540352235.1,286047003.3,P
1540352236.0,286047003.3,P
1540352255.8,286047003.2,Y
1540352275.7,286046999.9,P
1540352295.5,286047000.6,N
1540352315.3,286047002.4,N
1540352335.2,286047000.0,N
1540352355.0,286047001.8,N
1540352355.9,286047001.8,N
1540352375.8,286047002.7,N
1540352395.6,286047000.2,N
1540352415.4,286047002.7,N
1540352435.3,286047002.4,N
1540352455.1,286047006.0,Y
1540352475.8,286047002.4,P
1540352495.7,286047003.7,P
1540352515.5,286047003.4,P
1540352535.4,286047008.8,Y
1540352555.2,286047007.3,P
1540352575.0,286047007.5,P
1540352575.9,286047007.5,P
1540352595.8,286047005.1,N
1540352615.6,286047003.6,N
1540352635.5,286047003.9,N
1540352655.3,286047003.8,N
1540352675.1,286047003.7,N
1540352695.9,286047003.8,N
1540352715.7,286047003.0,N
1540352735.5,286047004.8,N
1540352755.4,286047004.6,N
1540352775.2,286047004.2,N
1540352795.0,286047003.8,N
1540352796.0,286047003.8,N
1540352815.8,286047001.6,N
1540352835.6,286047004.4,N
1540352855.5,286047004.4,N
1540352875.3,286047001.6,N
1540352895.1,286047001.0,N
1540352915.9,286047002.6,N
1540352935.7,286047004.0,N
1540352955.6,286047004.4,N
1540352975.4,286047004.1,N
1540352995.2,286047003.4,N
1540353015.1,286047003.7,N
1540353016.0,286047003.7,N
1540353035.8,286047003.0,N
1540353055.6,286047006.7,Y
1540353075.5,286047005.5,P
1540353095.3,286047005.4,P
1540353115.2,286047004.8,P
1540353135.9,286047004.6,Y
1540353155.7,286047002.4,P
1540353175.6,286047001.4,N
1540353195.4,286047002.4,N
1540353215.2,286047001.3,N
1540353235.1,286047004.3,Y
1540353236.0,286047004.3,P
1540353255.8,286047000.5,N
1540353275.7,286046998.3,N
1540353295.5,286046997.1,N
1540353315.3,286046997.3,N
1540353335.2,286046999.5,N
1540353355.0,286047000.4,N
1540353355.9,286047000.4,N
1540353375.8,286047001.8,N
1540353395.6,286047001.4,N
1540353415.4,286047002.6,N
1540353435.3,286047003.2,N
1540353455.1,286047005.8,N
1540353475.8,286047007.0,N
1540353495.7,286047006.7,N
1540353515.5,286047007.4,N
1540353535.3,286047007.3,N
1540353555.2,286047005.8,N
1540353575.0,286047005.5,N
1540353575.9,286047005.5,N
1540353595.8,286047003.1,N
